Location: Newark
(55.5030°N, 22.7200°E)
Time: 07:25:26
(UTC+00:00)

Altair - All Passes

Search period start: 26 May 2020 00:00
Search period end: 05 June 2020 00:00
Orbit: 1501 x 1683 km, 47.2° (Epoch: 25 May)

Date Brightness Start Highest point End Pass type
(mag) Time Alt. Az. Time Alt. Az. Time Alt. Az.
26 May - 01:02:16 10° WSW 01:12:02 54° S 01:21:42 10° ESE visible
26 May - 03:06:31 10° W 03:15:40 40° SSW 03:24:39 10° SE daylight
26 May - 05:12:12 10° W 05:18:16 18° SW 05:24:14 10° SSW daylight
26 May - 20:33:15 10° S 20:40:16 22° SE 20:47:22 10° E visible
26 May - 22:33:49 10° SW 22:43:08 44° SSE 22:52:30 10° E visible
27 May - 00:37:07 10° WSW 00:46:53 55° S 00:56:35 10° ESE visible
27 May - 02:41:19 10° W 02:50:35 42° SSW 02:59:40 10° SE daylight
27 May - 04:46:47 10° W 04:53:16 20° SW 04:59:40 10° S daylight
27 May - 20:08:34 10° S 20:15:15 21° SE 20:22:00 10° E visible
27 May - 22:08:48 10° SW 22:18:01 43° SSE 22:27:19 10° E visible
28 May - 00:11:59 10° WSW 00:21:44 55° S 00:31:27 10° ESE visible
28 May - 02:16:08 10° W 02:25:27 43° SSW 02:34:40 10° SE daylight
28 May - 04:21:23 10° W 04:28:15 21° SW 04:35:02 10° S daylight
28 May - 19:43:57 10° S 19:50:15 19° SE 19:56:36 10° E visible
28 May - 21:43:48 10° SW 21:52:55 41° SSE 22:02:08 10° E visible
28 May - 23:46:50 10° WSW 23:56:35 55° S 00:06:20 10° ESE visible
29 May - 01:50:57 10° W 02:00:21 45° SSW 02:09:38 10° SE daylight
29 May - 03:56:02 10° W 04:03:14 23° SW 04:10:21 10° S daylight
29 May - 19:19:24 10° SSE 19:25:15 17° SE 19:31:09 10° E daylight
29 May - 21:18:49 10° SW 21:27:49 40° SSE 21:36:56 10° E visible
29 May - 23:21:44 10° WSW 23:31:26 54° S 23:41:11 10° ESE visible
30 May - 01:25:46 10° W 01:35:14 46° SSW 01:44:36 10° SE daylight
30 May - 03:30:42 10° W 03:38:13 24° SW 03:45:38 10° S daylight
30 May - 18:54:56 10° SSE 19:00:15 16° SE 19:05:38 10° E daylight
30 May - 20:53:51 10° SSW 21:02:43 38° SSE 21:11:44 10° E visible
30 May - 22:56:37 10° WSW 23:06:17 54° S 23:16:02 10° ESE visible
31 May - 01:00:35 10° W 01:10:07 47° SSW 01:19:33 10° SE visible
31 May - 03:05:24 10° W 03:13:11 26° SW 03:20:52 10° S daylight
31 May - 18:30:34 10° SSE 18:35:17 14° SE 18:40:01 10° E daylight
31 May - 20:28:54 10° SSW 20:37:38 36° SSE 20:46:31 10° E visible
31 May - 22:31:30 10° WSW 22:41:09 53° S 22:50:53 10° E visible
01 Jun - 00:35:25 10° W 00:44:58 49° SSW 00:54:29 10° SE visible
01 Jun - 02:40:08 10° W 02:48:08 28° SW 02:56:03 10° SSE daylight
01 Jun - 18:06:22 10° SSE 18:10:18 13° SE 18:14:17 10° E daylight
01 Jun - 20:03:58 10° SSW 20:12:33 35° SSE 20:21:18 10° E visible
01 Jun - 22:06:24 10° WSW 22:16:00 53° S 22:25:43 10° E visible
02 Jun - 00:10:15 10° W 00:19:51 50° SSW 00:29:25 10° SE visible
02 Jun - 02:14:51 10° W 02:23:05 29° SW 02:31:13 10° SSE daylight
02 Jun - 17:42:25 10° SE 17:45:21 12° ESE 17:48:17 10° ESE daylight
02 Jun - 19:39:04 10° SSW 19:47:29 33° SE 19:56:03 10° E visible
02 Jun - 21:41:18 10° WSW 21:50:51 52° S 22:00:33 10° E visible
02 Jun - 23:45:06 10° W 23:54:42 51° SSW 00:04:20 10° ESE visible
03 Jun - 01:49:37 10° W 01:58:00 31° SW 02:06:21 10° SSE daylight
03 Jun - 03:59:35 10° WSW 04:00:04 10° WSW 04:00:32 10° SW daylight
03 Jun - 17:19:24 10° SE 17:20:24 10° ESE 17:21:24 10° ESE daylight
03 Jun - 19:14:11 10° SSW 19:22:25 31° SE 19:30:49 10° E daylight
03 Jun - 21:16:13 10° WSW 21:25:43 51° SSE 21:35:23 10° E visible
03 Jun - 23:19:56 10° W 23:29:34 52° SSW 23:39:14 10° ESE visible
04 Jun - 01:24:23 10° W 01:32:56 33° SW 01:41:27 10° SSE daylight
04 Jun - 03:32:17 10° WSW 03:35:06 11° WSW 03:37:54 10° SW daylight
04 Jun - 18:49:20 10° SSW 18:57:22 29° SE 19:05:34 10° E daylight
04 Jun - 20:51:09 10° SW 21:00:35 50° SSE 21:10:12 10° E visible
04 Jun - 22:54:47 10° W 23:04:25 53° S 23:14:07 10° ESE visible
